{"data":{"norad_id":51951,"intl_designator":"2022-023F","name":"2022-023F","alt_names":[],"object_type":"PAYLOAD","status":"ACTIVE","operator":null,"country":"PRC","launch_date":"2022-03-05","launch_site_code":"XICLF","launch_vehicle":null,"mission":null,"orbit_class":"UNKNOWN","rcs_meters":null,"size_class":null,"mass_kg":null,"dimensions":null,"purposes":[],"wikipedia_slug":null,"has_3d_model":false,"image_url":null,"decayed_at":null,"tle_current":{"epoch":"2026-09-20T22:22:54.294240Z","epoch_age_seconds":81507,"freshness":"FRESH","line1":"1 51951U 22023F   26263.93257285  .00013754  00000+0  53726-3 0  9995","line2":"2 51951  63.4534 308.0184 0136004 342.0878  17.5464 15.17946118252243","mean_motion":15.17946118,"eccentricity":0.0136004,"inclination_deg":63.4534,"raan_deg":308.0184,"arg_perigee_deg":342.0878,"mean_anomaly_deg":17.5464,"bstar":0.00053726,"rev_number":25224,"period_min":94.865027350068,"perigee_km":418.33958324398,"apogee_km":605.75815097809,"semimajor_km":6890.185867111,"source":"CELESTRAK","updated_at":"2026-09-21T09:00:08.416273Z"}}}